Simultaneous Nadir Overpasses (SNOs) Predictions

Prediction of SNOs between AURA and NPP Satellite Orbit:

Table of predicted SNOs for the next 14.0 days since TLE Epoch: 11/30/2018
Index Date (AURA) Time (AURA) Lat,Lon (AURA) SZA (AURA ) Date (NPP) Time (NPP) Lat,Lon (NPP) SZA (NPP ) Distance(km) Time Diff (sec)
1 12/03/2018 02:51:56 -79.44,-146.56 66.31 12/03/2018 02:51:17 -79.44,-146.64 66.26 1.70 39
2 12/03/2018 03:41:14 79.74, 23.22 113.30 12/03/2018 03:41:52 79.74, 23.25 113.26 0.69 38
3 12/05/2018 19:08:22 -79.55, -29.93 66.05 12/05/2018 19:08:09 -79.54, -30.04 66.02 2.57 13
4 12/05/2018 19:57:41 79.81, 139.61 113.60 12/05/2018 19:58:45 79.81, 139.59 113.55 0.41 64
5 12/08/2018 10:35:26 79.42, -82.58 114.47 12/08/2018 10:34:21 79.42, -82.59 114.52 0.28 65
6 12/08/2018 11:24:48 -79.62, 86.41 65.79 12/08/2018 11:25:01 -79.61, 86.28 65.78 2.89 13
7 12/11/2018 02:51:53 79.48, 33.71 114.69 12/11/2018 02:51:14 79.48, 33.69 114.73 0.36 39
8 12/11/2018 03:41:14 -79.71,-157.01 65.63 12/11/2018 03:41:53 -79.70,-157.13 65.63 2.70 39
9 12/13/2018 19:08:18 79.61, 150.50 114.77 12/13/2018 19:08:05 79.61, 150.51 114.77 0.32 13




NCC Satellite Simultaneous Nadir Overpasses (SNOs) Prediction Service
